FW3881 Weather Reports


Display with metric or nautical units.
time (UTC)temp
F
wind
direction
speed
MPH
gust
MPH
rain 1hr
in
rain 24hr
in
rain mn
in
humidity
%
barometer
mb
20260505211457 74 202 3.0 6.0 0.00 0.00 0.00 41 1010.7
20260505211200 75 235 2.0 8.0 0.00 0.00 0.00 43 1010.5
20260505210440 75 244 3.0 8.0 0.00 0.00 0.00 44 1010.5
20260505205942 75 174 3.0 8.0 0.00 0.00 0.00 44 1010.5
20260505205438 76 177 3.0 7.0 0.00 0.00 0.00 42 1010.7
20260505205207 76 108 3.0 9.0 0.00 0.00 0.00 42 1010.4
20260505204432 76 231 3.0 9.0 0.00 0.00 0.00 43 1010.3
20260505203905 76 214 2.0 5.0 0.00 0.00 0.00 41 1010.5
20260505203403 77 179 2.0 4.0 0.00 0.00 0.00 42 1010.4
20260505202838 78 169 2.0 9.0 0.00 0.00 0.00 41 1010.3
20260505202332 77 196 2.0 9.0 0.00 0.00 0.00 42 1010.4
20260505202055 76 208 3.0 9.0 0.00 0.00 0.00 42 1010.5
20260505201304 76 164 3.0 9.0 0.00 0.00 0.00 41 1010.4
20260505200740 77 217 3.0 9.0 0.00 0.00 0.00 43 1010.5
20260505200212 78 208 2.0 9.0 0.00 0.00 0.00 43 1010.7
20260505195706 77 198 2.0 7.0 0.00 0.00 0.00 44 1010.5
20260505195204 77 230 2.0 5.0 0.00 0.00 0.00 45 1010.8
20260505194703 78 228 2.0 7.0 0.00 0.00 0.00 43 1010.9
20260505194140 77 202 2.0 7.0 0.00 0.00 0.00 44 1010.8
20260505193640 77 168 2.0 11.0 0.00 0.00 0.00 41 1010.9
20260505193141 77 219 2.0 11.0 0.00 0.00 0.00 44 1011.0
20260505192639 77 258 3.0 8.0 0.00 0.00 0.00 44 1011.0
20260505192137 77 220 3.0 9.0 0.00 0.00 0.00 44 1011.0
20260505191609 77 189 2.0 9.0 0.00 0.00 0.00 41 1011.2
20260505191105 77 159 3.0 9.0 0.00 0.00 0.00 41 1011.2
20260505190823 77 166 3.0 8.0 0.00 0.00 0.00 42 1011.1
20260505190329 77 203 3.0 9.0 0.00 0.00 0.00 42 1011.2
20260505185755 76 293 3.0 9.0 0.00 0.00 0.00 41 1011.4
20260505185031 76 164 3.0 9.0 0.00 0.00 0.00 43 1011.3
20260505184502 77 231 3.0 9.0 0.00 0.00 0.00 41 1011.5
20260505184002 77 144 2.0 9.0 0.00 0.00 0.00 41 1011.4
20260505183436 78 121 2.0 7.0 0.00 0.00 0.00 41 1011.5
20260505182915 77 192 2.0 6.0 0.00 0.00 0.00 43 1011.6
20260505182344 77 196 2.0 8.0 0.00 0.00 0.00 43 1011.6
20260505181814 77 223 2.0 8.0 0.00 0.00 0.00 42 1011.6
20260505181313 78 198 2.0 5.0 0.00 0.00 0.00 42 1011.7
20260505180755 77 167 2.0 5.0 0.00 0.00 0.00 41 1011.8
20260505180252 78 193 2.0 8.0 0.00 0.00 0.00 45 1011.8
20260505175755 77 209 2.0 9.0 0.00 0.00 0.00 44 1011.8
20260505175238 77 245 2.0 9.0 0.00 0.00 0.00 47 1011.8
20260505174737 77 206 3.0 11.0 0.00 0.00 0.00 42 1011.7
20260505174207 77 244 2.0 11.0 0.00 0.00 0.00 43 1012.0
20260505173705 76 190 3.0 10.0 0.00 0.00 0.00 44 1012.1
20260505173200 76 219 3.0 10.0 0.00 0.00 0.00 45 1012.1
20260505172635 76 242 2.0 8.0 0.00 0.00 0.00 45 1012.0
20260505172135 76 221 3.0 8.0 0.00 0.00 0.00 44 1012.0
20260505171607 76 235 3.0 8.0 0.00 0.00 0.00 44 1012.1
20260505171058 76 230 3.0 8.0 0.00 0.00 0.00 44 1012.2
20260505170558 76 260 3.0 9.0 0.00 0.00 0.00 46 1012.2
20260505170542 75 248 3.0 9.0 0.00 0.00 0.00 43 1012.2
20260505165555 75 203 3.0 7.0 0.00 0.00 0.00 43 1012.3
20260505165317 75 179 2.0 7.0 0.00 0.00 0.00 44 1012.5
20260505164534 76 223 2.0 12.0 0.00 0.00 0.00 43 1012.4
20260505164007 76 208 3.0 12.0 0.00 0.00 0.00 46 1012.7
20260505163441 76 5 3.0 11.0 0.00 0.00 0.00 44 1012.7
20260505162941 75 269 3.0 9.0 0.00 0.00 0.00 45 1012.9
20260505162443 75 162 3.0 9.0 0.00 0.00 0.00 43 1012.9
20260505161941 75 219 3.0 9.0 0.00 0.00 0.00 45 1012.9
20260505161412 75 225 2.0 6.0 0.00 0.00 0.00 45 1012.9
20260505160847 75 149 2.0 4.0 0.00 0.00 0.00 46 1013.1
20260505160322 74 225 2.0 7.0 0.00 0.00 0.00 46 1013.0
20260505153235 74 147 3.0 8.0 0.00 0.00 0.00 46 1013.2
20260505152733 74 190 2.0 7.0 0.00 0.00 0.00 47 1013.2
20260505152233 73 137 2.0 7.0 0.00 0.00 0.00 46 1013.2
20260505151732 73 218 1.0 5.0 0.00 0.00 0.00 50 1013.2
20260505151434 73 246 2.0 8.0 0.00 0.00 0.00 52 1013.2
20260505150648 72 173 2.0 8.0 0.00 0.00 0.00 53 1013.2
20260505150118 72 102 2.0 6.0 0.00 0.00 0.00 54 1013.2
20260505140206 68 198 2.0 5.0 0.00 0.00 0.00 58 1013.1
20260505130214 64 223 1.0 8.0 0.00 0.00 0.00 62 1013.3
20260505124626 63 229 1.0 5.0 0.00 0.00 0.00 64 1013.4
20260505124127 62 84 0.0 3.0 0.00 0.00 0.00 68 1013.3
20260505123557 62 323 0.0 3.0 0.00 0.00 0.00 69 1013.4
20260505123055 61 51 0.0 2.0 0.00 0.00 0.00 68 1013.5
20260505122819 61 98 0.0 2.0 0.00 0.00 0.00 69 1013.4
20260505122054 60 92 0.0 3.0 0.00 0.00 0.00 70 1013.4
20260505121554 60 269 0.0 3.0 0.00 0.00 0.00 70 1013.5
20260505121043 60 272 1.0 4.0 0.00 0.00 0.00 71 1013.4
20260505120514 59 305 1.0 4.0 0.00 0.00 0.00 73 1013.4
20260505120012 59 72 1.0 3.0 0.00 0.00 0.00 72 1013.4
20260505115708 58 259 1.0 3.0 0.00 0.00 0.00 72 1013.4
20260505114944 58 212 1.0 5.0 0.00 0.00 0.00 73 1013.3
20260505114441 57 208 1.0 5.0 0.00 0.00 0.00 74 1013.2
20260505113938 57 245 0.0 4.0 0.00 0.00 0.00 74 1013.1
20260505113409 56 171 0.0 2.0 0.00 0.00 0.00 76 1013.1
20260505113132 56 158 0.0 2.0 0.00 0.00 0.00 77 1013.0
20260505112342 56 158 0.0 2.0 0.00 0.00 0.00 77 1013.0
20260505111813 55 158 0.0 2.0 0.00 0.00 0.00 78 1012.9
20260505111310 55 300 0.0 2.0 0.00 0.00 0.00 78 1012.8
20260505110746 55 61 0.0 4.0 0.00 0.00 0.00 79 1012.7
20260505110220 55 10 0.0 4.0 0.00 0.00 0.00 78 1012.7
20260505101943 53 248 0.0 0.0 0.00 0.00 0.00 80 1012.2
20260505101431 53 248 0.0 0.0 0.00 0.00 0.00 80 1012.2
20260505101123 53 248 0.0 0.0 0.00 0.00 0.00 80 1012.1
20260505100400 53 248 0.0 0.0 0.00 0.00 0.00 80 1012.0
20260505095831 53 249 0.0 0.0 0.00 0.00 0.00 80 1012.1
20260505095328 53 249 0.0 0.0 0.00 0.00 0.00 80 1012.2
20260505094804 54 249 0.0 0.0 0.00 0.00 0.00 79 1012.2
20260505094459 54 249 0.0 0.0 0.00 0.00 0.00 79 1012.1
20260505093730 54 249 0.0 0.0 0.00 0.00 0.00 78 1012.1
20260505093228 55 249 0.0 4.0 0.00 0.00 0.00 78 1012.1
20260505092947 55 248 0.0 4.0 0.00 0.00 0.00 77 1012.1
20260505092442 55 250 0.0 2.0 0.00 0.00 0.00 77 1012.1
20260505091655 55 250 1.0 5.0 0.00 0.00 0.00 76 1012.1
20260505091417 56 250 1.0 5.0 0.00 0.00 0.00 76 1012.1
20260505090906 55 184 1.0 3.0 0.00 0.00 0.00 76 1012.0
20260505090117 55 264 1.0 3.0 0.00 0.00 0.00 77 1012.0
20260505085615 55 246 0.0 3.0 0.00 0.00 0.00 77 1012.0
20260505085054 55 32 0.0 2.0 0.00 0.00 0.00 78 1012.0
20260505084547 55 183 0.0 2.0 0.00 0.00 0.00 78 1012.0
20260505084017 55 111 0.0 2.0 0.00 0.00 0.00 78 1011.9
20260505083736 55 108 0.0 2.0 0.00 0.00 0.00 77 1011.8
20260505083014 55 100 0.0 2.0 0.00 0.00 0.00 78 1011.9
20260505082742 55 126 0.0 2.0 0.00 0.00 0.00 77 1011.8
20260505081950 55 199 0.0 2.0 0.00 0.00 0.00 77 1011.8
20260505081446 55 252 0.0 2.0 0.00 0.00 0.00 77 1011.9
20260505080949 56 264 0.0 4.0 0.00 0.00 0.00 77 1011.8
20260505080446 56 264 0.0 4.0 0.00 0.00 0.00 77 1011.9
20260505075950 56 247 1.0 6.0 0.00 0.00 0.00 76 1011.9
20260505075417 56 247 1.0 6.0 0.00 0.00 0.00 76 1011.9
20260505074911 56 198 0.0 2.0 0.00 0.00 0.00 77 1011.8
20260505074346 55 229 0.0 1.0 0.00 0.00 0.00 77 1011.8
20260505073817 55 229 0.0 8.0 0.00 0.00 0.00 77 1011.8
20260505073254 55 230 0.0 8.0 0.00 0.00 0.00 77 1011.7
20260505072726 55 109 0.0 1.0 0.00 0.00 0.00 78 1011.7
20260505072200 55 99 0.0 1.0 0.00 0.00 0.00 77 1011.6
20260505071634 55 204 0.0 0.0 0.00 0.00 0.00 77 1011.7
20260505071338 55 204 0.0 0.0 0.00 0.00 0.00 77 1011.6
20260505070539 56 204 0.0 0.0 0.00 0.00 0.00 77 1011.6
20260505070039 56 171 0.0 0.0 0.00 0.00 0.00 76 1011.6
20260505065512 56 172 0.0 2.0 0.00 0.00 0.00 76 1011.6
20260505064944 56 5 0.0 2.0 0.00 0.00 0.00 75 1011.7
20260505064415 56 220 0.0 0.0 0.00 0.00 0.00 75 1011.7
20260505063914 56 220 0.0 0.0 0.00 0.00 0.00 74 1011.7
20260505063345 56 220 0.0 0.0 0.00 0.00 0.00 74 1011.8
20260505062845 56 217 0.0 0.0 0.00 0.00 0.00 74 1011.8
20260505062335 56 217 0.0 0.0 0.00 0.00 0.00 74 1011.8
20260505061839 56 217 0.0 0.0 0.00 0.00 0.00 74 1011.8
20260505061322 56 217 0.0 0.0 0.00 0.00 0.00 73 1011.9
20260505060829 56 217 0.0 0.0 0.00 0.00 0.00 74 1011.9
20260505060257 56 217 0.0 0.0 0.00 0.00 0.00 74 1012.0
20260505060018 56 217 0.0 0.0 0.00 0.00 0.00 75 1012.0
20260505055227 56 217 0.0 0.0 0.00 0.00 0.00 75 1011.9
20260505054655 56 217 0.0 0.0 0.00 0.00 0.00 75 1011.9
20260505054132 56 217 0.0 0.0 0.00 0.00 0.00 75 1011.9
20260505053826 56 217 0.0 0.0 0.00 0.00 0.00 76 1012.0
20260505053103 55 217 0.0 2.0 0.00 0.00 0.00 76 1012.0
20260505052536 56 217 0.0 2.0 0.00 0.00 0.00 76 1011.9
20260505052007 56 318 0.0 0.0 0.00 0.00 0.00 77 1011.9
20260505051504 56 318 0.0 0.0 0.00 0.00 0.00 76 1012.0
20260505050937 56 307 0.0 0.0 0.00 0.00 0.00 75 1012.1
20260505050415 56 307 0.0 0.0 0.00 0.00 0.00 74 1011.9
20260505041147 58 183 0.0 0.0 0.00 0.00 0.00 72 1011.9
20260505040650 58 183 0.0 0.0 0.00 0.00 0.00 72 1011.8
20260505040119 58 183 0.0 1.0 0.00 0.00 0.00 72 1011.8
20260505035840 58 183 0.0 3.0 0.00 0.00 0.00 72 1011.8
20260505035118 58 178 0.0 3.0 0.00 0.00 0.00 72 1011.8
20260505034814 58 183 0.0 2.0 0.00 0.00 0.00 71 1011.8
20260505034053 58 173 0.0 2.0 0.00 0.00 0.00 71 1011.7
20260505033553 58 163 0.0 2.0 0.00 0.00 0.00 71 1011.7
20260505033051 58 300 0.0 5.0 0.00 0.00 0.00 70 1011.7
20260505032553 59 179 0.0 5.0 0.00 0.00 0.00 70 1011.8
20260505032028 59 148 0.0 6.0 0.00 0.00 0.00 69 1011.8
20260505031505 59 211 0.0 6.0 0.00 0.00 0.00 69 1011.9
20260505031000 59 67 0.0 6.0 0.00 0.00 0.00 69 1011.9
20260505030500 59 194 0.0 6.0 0.00 0.00 0.00 68 1011.9
20260505030217 59 108 0.0 2.0 0.00 0.00 0.00 69 1011.9
20260505025430 59 68 1.0 5.0 0.00 0.00 0.00 68 1012.0
20260505024928 59 234 0.0 5.0 0.00 0.00 0.00 68 1012.0
20260505024423 59 312 0.0 2.0 0.00 0.00 0.00 68 1012.0
20260505023919 59 229 0.0 2.0 0.00 0.00 0.00 68 1011.9
20260505023420 59 196 0.0 2.0 0.00 0.00 0.00 69 1012.0
20260505022912 59 258 0.0 2.0 0.00 0.00 0.00 68 1012.0
20260505022409 60 258 0.0 3.0 0.00 0.00 0.00 67 1011.9
20260505021842 60 258 0.0 3.0 0.00 0.00 0.00 67 1011.8
20260505021336 60 204 0.0 4.0 0.00 0.00 0.00 67 1011.9
20260505021039 60 205 1.0 4.0 0.00 0.00 0.00 66 1011.8
20260505020259 60 208 1.0 3.0 0.00 0.00 0.00 65 1011.8
20260505015800 61 203 1.0 3.0 0.00 0.00 0.00 64 1011.8
20260505015257 61 182 1.0 5.0 0.00 0.00 0.00 64 1011.8
20260505014739 61 163 1.0 5.0 0.00 0.00 0.00 64 1011.7
20260505014237 61 213 1.0 5.0 0.00 0.00 0.00 64 1011.6
20260505013739 61 204 1.0 5.0 0.00 0.00 0.00 63 1011.5
20260505013211 62 207 1.0 3.0 0.00 0.00 0.00 62 1011.5
20260505012711 62 206 0.0 3.0 0.00 0.00 0.00 62 1011.6
20260505012142 62 73 0.0 2.0 0.00 0.00 0.00 62 1011.6
20260505011637 62 5 0.0 2.0 0.00 0.00 0.00 63 1011.6
20260505011117 62 5 0.0 2.0 0.00 0.00 0.00 62 1011.4
20260505010825 62 198 1.0 6.0 0.00 0.00 0.00 61 1011.4
20260505010036 63 228 1.0 5.0 0.00 0.00 0.00 62 1011.2
20260505005536 63 203 1.0 3.0 0.00 0.00 0.00 60 1011.2
20260505005010 63 199 2.0 7.0 0.00 0.00 0.00 57 1011.0
20260505004510 63 237 2.0 7.0 0.00 0.00 0.00 57 1011.1
20260505004013 64 227 1.0 5.0 0.00 0.00 0.00 56 1010.9
20260505003448 64 161 1.0 8.0 0.00 0.00 0.00 56 1011.1
20260505002948 64 177 1.0 8.0 0.00 0.00 0.00 55 1011.1
20260505002447 64 193 1.0 4.0 0.00 0.00 0.00 54 1011.0
20260505001948 64 194 2.0 7.0 0.00 0.00 0.00 54 1011.0
20260505001441 64 223 2.0 7.0 0.00 0.00 0.00 54 1011.1
20260505000939 64 224 1.0 4.0 0.00 0.00 0.00 53 1011.0
20260505000410 64 163 0.0 4.0 0.00 0.00 0.00 54 1011.0
20260504235910 64 227 1.0 4.0 0.00 0.00 0.00 54 1011.0
20260504235341 65 277 1.0 6.0 0.00 0.00 0.00 53 1011.0
20260504235101 65 152 1.0 7.0 0.00 0.00 0.00 53 1010.9
20260504234558 65 181 1.0 7.0 0.00 0.00 0.00 54 1010.9
20260504234035 65 225 0.0 6.0 0.00 0.00 0.00 52 1010.9
20260504233306 65 248 0.0 4.0 0.00 0.00 0.00 52 1010.8
20260504232738 65 214 1.0 4.0 0.00 0.00 0.00 52 1010.8
20260504232238 65 200 1.0 8.0 0.00 0.00 0.00 52 1010.8
20260504231732 65 122 1.0 8.0 0.00 0.00 0.00 52 1010.7
20260504231231 65 117 2.0 8.0 0.00 0.00 0.00 51 1010.7
20260504230702 65 223 1.0 8.0 0.00 0.00 0.00 51 1010.8
20260504230201 65 146 1.0 3.0 0.00 0.00 0.00 51 1010.8
20260504225633 66 321 1.0 3.0 0.00 0.00 0.00 50 1010.8
20260504225132 67 177 1.0 7.0 0.00 0.00 0.00 48 1010.9
20260504225044 67 192 0.0 7.0 0.00 0.00 0.00 47 1010.8
20260504224101 67 197 1.0 9.0 0.00 0.00 0.00 47 1010.8
20260504223755 67 198 1.0 9.0 0.00 0.00 0.00 47 1010.8
20260504223007 67 144 1.0 5.0 0.00 0.00 0.00 47 1010.9
20260504222444 67 218 1.0 5.0 0.00 0.00 0.00 47 1010.9
20260504221919 68 314 1.0 5.0 0.00 0.00 0.00 48 1010.8
20260504221349 68 202 1.0 5.0 0.00 0.00 0.00 48 1010.9
20260504220849 68 221 1.0 3.0 0.00 0.00 0.00 46 1010.9
20260504220319 69 138 1.0 8.0 0.00 0.00 0.00 47 1010.9
20260504215817 69 169 2.0 8.0 0.00 0.00 0.00 47 1010.8
20260504215250 68 196 1.0 5.0 0.00 0.00 0.00 46 1010.8
20260504214744 68 257 1.0 6.0 0.00 0.00 0.00 46 1010.9
20260504214220 68 214 2.0 3.0 0.00 0.00 0.00 46 1010.8
20260504213922 68 232 2.0 6.0 0.00 0.00 0.00 46 1010.8
20260504213127 68 333 2.0 8.0 0.00 0.00 0.00 47 1010.9
20260504212625 68 223 1.0 8.0 0.00 0.00 0.00 46 1010.8
20260504212054 69 211 2.0 5.0 0.00 0.00 0.00 46 1010.8